GFSSW_850_dewp_171.txt.gz
Dewpoint
-1 -2 -3 -3 -4 -7 -7 -4 4 7 6 6 6 3 3 6 7 8 7 8 7 6 5 5 4 3 4 4 3 3 5 6 6 4 3 1 0 -0 -1 -1 -4 -5 -5 -6 -8
-2 -2 -2 -3 -4 -6 -7 -5 -3 2 5 6 -0 0 8 8 8 8 8 6 5 5 6 5 3 3 4 3 3 3 5 5 2 1 2 0 -0 -1 -2 -2 -4 -6 -7 -8 -7
-2 -2 -2 -2 -4 -6 -7 -8 -5 -2 -1 -1 -4 3 7 7 7 6 6 6 5 5 5 4 3 3 2 2 2 2 4 2 2 1 0 -0 -1 -1 -1 -2 -5 -4 -6 -6 -11
-2 -3 -3 -3 -5 -6 -7 -5 -4 -2 -1 -4 -1 6 7 8 7 6 4 3 4 4 4 3 2 3 2 2 1 2 2 2 1 0 -0 -0 -1 -1 -1 -4 -6 -6 -4 -11 -8
-3 -4 -4 -3 -4 -6 -6 -5 -5 -2 -1 -1 6 8 7 6 6 6 4 3 3 3 2 2 2 1 2 1 1 1 1 -0 -0 -1 -2 -1 -1 -2 -2 -4 -7 -6 -12 -6 -4
-3 -4 -4 -4 -4 -6 -6 -5 -3 -1 -0 6 7 6 4 4 4 4 3 2 2 2 2 1 0 -0 -0 0 0 -0 -1 -1 -2 -3 -3 -2 -2 -2 -7 -9 -9 -11 -8 -3 -3
-2 -3 -4 -5 -5 -6 -6 -4 -2 -0 4 5 4 5 2 2 1 1 -1 -2 -0 1 -0 -1 -1 -0 -1 -1 -0 -1 -1 -2 -2 -5 -8 -6 -8 -4 -10 -8 -10 -13 -8 -2 -3
-3 -3 -4 -5 -5 -6 -5 -3 0 1 4 4 4 3 1 1 0 0 -1 -2 -3 -3 -2 -3 -2 -1 -1 -1 -2 -1 -1 -3 -6 -9 -10 -10 -5 -10 -10 -11 -13 -15 -10 -3 -4
-5 -3 -4 -5 -5 -5 -6 -2 -0 3 4 3 2 -1 1 0 -1 -5 -1 -2 -3 -3 -2 -1 -2 -1 -1 -2 -5 -3 -2 -5 -7 -9 -9 -9 -6 -9 -11 -11 -13 -14 -14 -3 -4
-6 -5 -5 -6 -5 -5 -6 -1 -2 -1 3 2 1 -1 0 -2 -6 -5 -5 -2 -3 -3 -3 -2 -2 -1 -1 -1 -5 -6 -5 -6 -6 -8 -8 -7 -6 -9 -11 -12 -13 -14 -11 -4 -6
-7 -6 -5 -6 -6 -5 -6 -1 -1 -2 -4 -3 -4 -3 -4 -6 -5 -6 -6 -2 -3 -2 -3 -2 -2 -4 -5 -1 -4 -6 -6 -5 -6 -8 -9 -8 -8 -10 -12 -14 -14 -12 -5 -5 -8
-8 -6 -5 -7 -7 -4 -6 -6 -5 -3 -4 -3 -4 -6 -7 -6 -4 -5 -6 -4 -3 -5 -6 -6 -2 -5 -6 -4 -4 -8 -7 -7 -8 -10 -10 -9 -10 -12 -13 -14 -14 -13 -5 -7 -9
-8 -7 -5 -7 -7 -5 -5 -4 -4 -1 -2 -5 -5 -5 -5 -6 -4 -5 -7 -7 -7 -6 -7 -6 -8 -9 -8 -8 -9 -9 -8 -7 -8 -9 -10 -10 -9 -10 -12 -13 -8 -7 -7 -9 -11
-7 -6 -5 -7 -4 -5 -4 -4 -3 1 -2 -4 -6 -6 -6 -6 -4 -6 -6 -7 -9 -7 -7 -7 -9 -9 -9 -9 -9 -7 -9 -8 -8 -8 -6 -10 -5 -9 -11 -12 -7 -8 -10 -11 -14
-6 -1 -4 -7 -4 -3 -4 -4 -1 2 -2 -5 -6 -5 -6 -6 -6 -6 -6 -8 -8 -8 -9 -9 -8 -8 -7 -8 -9 -7 -9 -9 -8 -7 -7 -7 -6 -8 -11 -13 -12 -12 -11 -14 -15
-1 1 -2 -3 -4 -4 -3 -1 1 -0 -4 -4 -5 -5 -5 -5 -5 -6 -6 -7 -7 -7 -7 -7 -8 -9 -8 -9 -10 -10 -10 -10 -8 -7 -6 -7 -6 -7 -10 -13 -13 -14 -13 -15 -14
4 3 -0 -3 -5 -4 -1 1 0 -1 -5 -2 -3 -4 -4 -4 -5 -5 -5 -5 -7 -6 -5 -7 -7 -10 -11 -9 -11 -10 -9 -6 -6 -6 -6 -8 -6 -8 -13 -14 -15 -16 -15 -15 -12
5 4 2 -1 -3 -3 0 -2 -3 -3 -2 -3 -3 -4 -2 -5 -6 -6 -6 -6 -7 -7 -5 -4 -4 -10 -11 -10 -9 -8 -8 -6 -7 -6 -7 -8 -5 -9 -12 -15 -15 -14 -13 -14 -11
5 4 3 1 -2 -3 0 -1 -0 -2 -3 -2 -3 -3 -3 -5 -6 -4 -5 -5 -6 -7 -5 -5 -5 -8 -9 -10 -10 -8 -6 -8 -7 -6 -4 -5 -7 -11 -11 -14 -15 -12 -12 -11 -11
4 4 3 2 -2 0 -1 1 -2 -3 -3 -3 0 -4 -3 -4 -3 -3 -3 -5 -7 -7 -7 -5 -5 -8 -8 -9 -9 -9 -9 -6 -7 -7 -5 -6 -6 -8 -12 -13 -12 -12 -10 -11 -10
4 3 2 2 -0 1 -1 -1 -2 -3 -3 -3 -2 -2 -3 -3 -3 -2 -4 -5 -7 -5 -5 -5 -6 -6 -7 -7 -6 -6 -6 -4 -7 -6 -4 -2 -5 -11 -12 -11 -11 -10 -10 -10 -9
3 1 2 -0 1 0 -0 -0 -4 -3 -3 -3 -3 -3 -2 -3 -2 -2 -2 -3 -7 -6 -5 -6 -6 -4 -4 -7 -7 -8 -7 -7 -5 -6 -6 -3 -4 -12 -12 -11 -11 -11 -10 -10 -8
3 2 2 1 0 1 1 -2 -3 -3 -3 -2 -2 -3 -3 -3 -3 -2 -2 -4 -7 -6 -4 -4 -5 -4 -5 -7 -8 -5 -6 -7 -9 -8 -4 -3 -5 -12 -11 -11 -10 -11 -10 -8 -10
2 2 2 1 1 -1 -0 -1 -0 -3 -3 -2 -2 -3 -3 -2 -3 -4 -2 -4 -6 -6 -4 -5 -5 -6 -3 -7 -9 -7 -7 -6 -6 -4 -4 -4 -5 -8 -9 -9 -9 -9 -9 -10 -10
2 2 2 2 -0 -1 -3 -2 1 0 -3 -3 -3 -2 -2 -3 -2 -1 -3 -3 -4 -4 -3 -4 -2 -4 -5 -6 -7 -6 -7 -7 -5 -5 -3 -5 -6 -7 -7 -7 -9 -9 -10 -9 -9
3 2 2 0 -0 -2 -1 -0 1 1 -2 -1 -1 -2 -3 -3 -2 -2 -4 -5 -4 -6 -5 -6 -1 -1 -1 -2 -2 -1 -2 -2 -3 -4 -4 -4 -3 -6 -7 -9 -9 -9 -9 -9 -10
3 3 2 1 -2 -2 -0 0 1 1 1 -1 -2 -1 -2 -3 -4 -5 -5 -5 -5 -5 -6 -4 -3 -2 -3 -5 -5 -3 -5 -5 -4 -4 -4 -2 -5 -8 -8 -9 -9 -8 -8 -7 -8

GFSSW_850_dewp_177.txt.gz
Dewpoint
-5 -5 -5 -5 -5 -6 -7 -7 -6 -2 5 6 6 3 4 7 7 7 8 8 8 6 5 5 4 5 5 4 4 4 5 6 6 5 4 1 -1 0 -2 -1 -4 -5 -6 -5 -13
-4 -5 -6 -6 -5 -6 -6 -4 -3 -2 -1 0 1 6 7 7 7 6 8 7 6 5 6 4 3 4 4 3 3 4 5 5 2 1 2 0 -1 -2 -2 -3 -4 -6 -6 -10 -14
-4 -5 -6 -6 -5 -6 -6 -5 -5 -3 -2 -3 -0 7 7 7 5 6 7 4 5 5 5 4 2 3 2 2 2 3 4 3 2 1 0 -1 -1 -1 -2 -4 -7 -6 -8 -13 -11
-5 -4 -5 -6 -5 -6 -5 -5 -2 0 -1 -3 2 7 7 6 6 5 3 3 3 3 3 2 2 2 2 3 1 3 2 2 2 1 -1 -1 -1 -2 -2 -5 -6 -5 -9 -13 -6
-7 -5 -4 -6 -5 -6 -5 -4 -2 -1 -2 1 5 7 6 5 6 5 4 4 2 1 2 2 1 2 2 1 1 2 1 -0 -0 -1 -2 -2 -1 -2 -2 -5 -4 -7 -11 -13 -5
-7 -6 -4 -5 -6 -6 -6 -3 -2 -0 4 6 7 7 5 3 5 4 1 1 1 1 -1 0 -0 0 0 0 -0 -0 -1 -1 -2 -3 -4 -2 -4 -3 -7 -6 -7 -10 -13 -14 -6
-8 -6 -5 -4 -7 -6 -6 -4 -1 3 6 7 7 6 4 2 3 1 -2 -5 -2 -0 -2 -2 -0 -1 -1 -0 -1 -1 -2 -3 -2 -7 -8 -6 -11 -5 -8 -8 -8 -11 -12 -13 -6
-8 -7 -5 -4 -7 -7 -6 -3 0 4 4 4 4 3 -0 1 -0 -1 -2 -4 -4 -4 -5 -3 -1 -2 -2 -2 -4 -2 -4 -4 -7 -10 -9 -11 -7 -11 -10 -10 -11 -12 -12 -12 -10
-7 -8 -7 -6 -6 -7 -6 -3 0 3 4 3 3 1 -1 -1 -3 -4 -2 -4 -3 -3 -2 -2 -2 -1 -2 -4 -6 -8 -5 -7 -9 -10 -9 -9 -7 -11 -11 -10 -11 -13 -13 -13 -13
-5 -7 -8 -6 -5 -7 -6 -3 1 3 4 3 1 -3 -1 -1 -6 -5 -3 -3 -3 -3 -3 -3 -3 -2 -1 -5 -6 -8 -6 -7 -7 -9 -8 -7 -7 -9 -10 -11 -12 -13 -14 -13 -12
-4 -5 -7 -6 -5 -7 -6 -2 -1 -3 2 -0 -2 -2 -2 -6 -4 -6 -4 -3 -3 -4 -5 -4 -5 -7 -6 -3 -7 -7 -7 -6 -8 -9 -8 -7 -8 -10 -11 -11 -12 -14 -13 -10 -3
-3 -2 -5 -7 -4 -6 -6 -2 -4 -3 -4 -3 -4 -5 -6 -5 -4 -6 -4 -4 -5 -7 -6 -8 -7 -6 -6 -3 -3 -7 -7 -8 -9 -10 -9 -9 -9 -11 -13 -13 -11 -11 -9 -4 -7
-2 -1 -1 -4 -3 -5 -6 -5 -4 -4 -5 -4 -5 -6 -7 -6 -5 -5 -6 -6 -8 -7 -7 -8 -8 -8 -7 -6 -7 -8 -7 -8 -8 -9 -10 -10 -11 -12 -12 -10 -7 -9 -5 -6 -9
5 4 -1 1 -4 -3 -5 -5 -5 -1 -3 -5 -5 -6 -6 -5 -5 -6 -7 -8 -9 -8 -7 -7 -9 -8 -7 -7 -8 -7 -9 -9 -8 -8 -7 -11 -6 -11 -11 -9 -8 -9 -8 -10 -12
5 5 3 1 -1 -3 -5 -4 -3 1 -5 -6 -6 -5 -5 -6 -6 -6 -6 -8 -9 -8 -10 -8 -8 -8 -8 -8 -9 -8 -10 -9 -8 -8 -8 -8 -7 -10 -11 -12 -9 -9 -10 -11 -15
4 4 4 2 1 -2 -4 -2 0 -1 -3 -3 -5 -5 -6 -6 -5 -6 -6 -7 -7 -7 -7 -8 -8 -8 -8 -10 -10 -11 -11 -10 -9 -8 -5 -9 -7 -10 -10 -13 -12 -11 -11 -13 -12
4 4 4 4 1 -3 -2 0 -1 -1 -5 -3 -4 -4 -4 -4 -4 -5 -5 -5 -6 -5 -6 -7 -8 -10 -10 -9 -11 -10 -10 -3 -2 -3 -2 -9 -6 -9 -12 -13 -14 -13 -15 -12 -11
4 3 4 4 2 -3 0 -2 -2 -5 -3 -4 -4 -4 -2 -4 -5 -5 -5 -5 -7 -7 -4 -3 -4 -10 -11 -9 -8 -8 -9 -3 -3 -4 -7 -8 -6 -9 -12 -14 -15 -14 -12 -11 -11
4 3 4 3 4 -2 1 -3 -1 -4 -4 -2 -3 -2 -2 -5 -5 -6 -6 -5 -6 -7 -4 -4 -5 -9 -9 -10 -11 -8 -7 -10 -6 -7 -5 -7 -8 -11 -12 -14 -15 -13 -11 -11 -10
4 4 3 3 3 -1 -1 1 -2 -4 -3 -3 -0 -2 -1 -3 -3 -3 -3 -5 -6 -7 -7 -6 -4 -8 -8 -9 -9 -9 -9 -5 -5 -5 -4 -8 -7 -9 -9 -13 -14 -13 -11 -10 -9
4 4 3 3 3 0 -0 -0 -2 -4 -3 -2 -1 -3 -3 -3 -3 -3 -3 -5 -7 -5 -7 -6 -5 -6 -8 -7 -6 -6 -6 -6 -6 -6 -4 -4 -7 -11 -11 -12 -13 -11 -10 -9 -8
4 3 2 3 1 -0 -1 -2 -3 -3 -3 -3 -4 -4 -3 -3 -2 -3 -2 -4 -7 -6 -6 -7 -6 -4 -5 -7 -8 -8 -6 -6 -3 -6 -6 -5 -4 -10 -12 -11 -10 -10 -9 -8 -9
4 1 1 1 2 1 0 0 -3 -2 -3 -2 -2 -3 -4 -3 -3 -3 -3 -5 -6 -6 -5 -5 -5 -4 -4 -6 -7 -4 -6 -9 -8 -7 -4 -3 -5 -11 -12 -11 -11 -10 -9 -8 -9
3 1 -0 0 1 -1 1 -0 -1 -3 -3 -2 -2 -3 -3 -3 -4 -3 -2 -4 -6 -6 -4 -6 -5 -4 -2 -6 -7 -7 -7 -6 -6 -4 -4 -5 -6 -9 -10 -10 -10 -9 -8 -8 -11
2 2 0 0 1 0 -2 -2 -0 -1 -3 -3 -2 -2 -2 -3 -2 -2 -3 -4 -5 -4 -4 -6 -4 -5 -5 -7 -7 -5 -6 -7 -5 -5 -3 -5 -5 -7 -7 -8 -8 -7 -8 -10 -12
1 2 1 -0 0 1 1 -2 -0 -1 -1 -1 -0 -2 -3 -2 -1 -1 -3 -3 -3 -5 -5 -6 -3 -2 -2 -3 -3 -2 -3 -4 -5 -5 -5 -5 -4 -7 -8 -7 -8 -8 -9 -10 -11
3 3 0 1 0 1 1 -0 -0 -1 -2 -2 -2 -2 -2 -2 -4 -4 -5 -4 -4 -4 -5 -4 -3 -3 -3 -5 -5 -3 -5 -5 -3 -4 -5 -3 -5 -7 -7 -8 -9 -9 -10 -11 -11

GFSSW_850_dewp_180.txt.gz
Dewpoint
-3 -4 -6 -7 -6 -7 -7 -6 -5 -3 0 6 5 4 4 6 6 7 8 8 8 6 5 5 4 5 5 5 5 4 3 4 4 5 4 1 1 1 -1 -2 -4 -4 -5 -4 -13
-4 -4 -5 -7 -7 -7 -8 -6 -5 -4 -2 -2 3 6 7 7 7 7 7 7 5 5 5 5 3 5 5 4 4 4 4 3 2 2 2 1 0 -1 -2 -4 -5 -6 -5 -8 -5
-5 -4 -4 -6 -7 -8 -8 -5 -5 -2 -3 -4 4 7 7 6 6 6 5 4 5 5 5 4 3 4 4 4 3 4 4 3 2 1 1 0 -1 -2 -3 -3 -7 -8 -8 -8 -3
-7 -5 -4 -5 -7 -7 -7 -5 -4 -2 -4 -4 5 7 7 6 5 5 3 3 3 3 4 3 3 3 3 4 2 3 2 2 2 2 -0 -1 -2 -3 -3 -6 -8 -7 -6 -9 -4
-7 -6 -6 -5 -7 -7 -6 -4 -2 -2 -1 1 5 7 6 5 6 4 4 4 3 0 2 2 2 2 3 2 2 3 2 1 1 0 -1 -1 -3 -4 -4 -4 -4 -4 -10 -7 -4
-7 -8 -7 -5 -5 -8 -6 -3 -1 2 3 5 6 7 5 3 5 4 1 1 0 -0 -0 1 1 1 1 1 1 0 0 -1 -2 -3 -4 -4 -6 -3 -7 -5 -3 -8 -11 -5 -3
-7 -8 -8 -7 -5 -7 -6 -4 -0 4 6 7 7 6 3 3 4 0 -3 -6 -1 -2 -2 -1 -0 -1 -0 -0 -0 -2 -4 -4 -4 -6 -9 -6 -9 -7 -8 -6 -7 -11 -12 -7 -3
-5 -7 -8 -8 -7 -6 -7 -5 -0 3 4 4 4 3 1 2 1 -1 -3 -5 -3 -5 -6 -4 -1 -2 -2 -2 -3 -3 -4 -3 -4 -8 -9 -10 -6 -12 -9 -8 -9 -11 -12 -12 -5
5 -4 -8 -8 -7 -6 -7 -5 -0 3 4 4 3 3 -1 -0 -1 -2 -2 -3 -3 -3 -2 -2 -2 -2 -3 -4 -4 -6 -5 -7 -9 -10 -9 -9 -8 -12 -10 -11 -10 -12 -13 -13 -13
4 5 -5 -8 -8 -6 -7 -4 0 3 4 3 2 0 -1 -1 -5 -3 -3 -4 -3 -3 -3 -3 -3 -3 -4 -5 -3 -7 -7 -8 -8 -10 -9 -9 -8 -12 -12 -11 -12 -13 -13 -14 -13
4 5 4 -4 -8 -6 -6 -3 0 -1 2 1 -1 -2 -1 -4 -5 -6 -4 -3 -3 -4 -5 -4 -6 -6 -5 -4 -8 -8 -7 -6 -9 -10 -9 -9 -9 -11 -12 -13 -12 -12 -14 -13 -9
5 5 5 2 -4 -6 -6 -2 -2 -4 -3 0 -3 -3 -4 -5 -4 -5 -4 -3 -5 -7 -7 -7 -8 -7 -6 -3 -5 -7 -7 -8 -9 -10 -10 -9 -9 -12 -13 -12 -11 -13 -11 -6 -6
5 5 5 4 2 -5 -5 -5 -5 -4 -4 -3 -4 -5 -5 -5 -5 -6 -4 -6 -8 -8 -8 -9 -7 -7 -8 -5 -6 -8 -6 -8 -8 -9 -10 -10 -9 -11 -12 -9 -8 -10 -7 -6 -8
5 4 5 4 -0 -2 -5 -6 -4 -3 2 -3 -4 -6 -6 -4 -4 -5 -6 -8 -8 -9 -8 -8 -9 -8 -7 -8 -8 -7 -9 -9 -8 -7 -5 -10 -4 -11 -12 -8 -8 -6 -7 -8 -10
5 4 4 4 2 -1 -4 -5 -4 0 6 -4 -5 -5 -4 -5 -5 -5 -7 -7 -8 -8 -8 -7 -8 -8 -8 -8 -9 -7 -9 -9 -8 -8 -9 -9 -7 -9 -11 -11 -8 -8 -8 -10 -12
5 4 4 4 3 0 -3 -3 -1 5 5 -4 -5 -5 -5 -6 -5 -6 -6 -7 -7 -7 -7 -8 -8 -9 -9 -9 -9 -10 -10 -10 -9 -9 -2 -8 -8 -10 -10 -12 -11 -9 -9 -13 -12
5 5 4 3 2 -1 -3 1 6 6 -6 -3 -4 -5 -5 -4 -4 -5 -5 -5 -4 -2 -4 -7 -7 -9 -9 -8 -10 -9 -9 1 3 2 3 -9 -7 -10 -12 -14 -13 -10 -12 -12 -11
5 5 4 3 4 0 -1 2 6 -4 -5 -4 -4 -4 -4 -4 -4 -4 -4 -3 -5 -7 -3 -2 -3 -8 -11 -8 -8 -9 -8 -1 2 0 -5 -10 -7 -9 -12 -13 -13 -13 -13 -11 -11
4 4 4 4 3 -1 1 5 3 -7 -5 -2 -4 -2 -2 -3 -3 -4 -4 -5 -5 -6 0 0 -4 -8 -9 -10 -10 -8 -6 -10 -4 -7 -5 -6 -10 -11 -12 -14 -14 -14 -13 -12 -10
4 4 4 3 3 -1 3 2 -3 -6 -3 -3 -2 -3 0 -1 -2 -2 -3 -6 -5 -7 -6 -5 -0 -8 -8 -9 -9 -9 -10 -4 -1 1 -0 -8 -9 -10 -10 -11 -13 -13 -12 -12 -11
4 4 3 4 3 1 3 0 -3 -4 -3 -2 -2 -1 -0 -1 -0 -1 1 -5 -7 -6 -6 -4 -2 -6 -8 -6 -6 -6 -6 -5 -3 -3 -2 -3 -8 -11 -12 -12 -13 -14 -13 -11 -10
4 4 3 3 1 1 2 -1 -3 -3 -3 -2 -2 -3 -2 -3 -1 -0 -1 -3 -7 -7 -6 -6 3 -2 -4 -7 -8 -8 -2 -2 -1 0 -3 -4 -5 -11 -12 -12 -13 -14 -13 -11 -9
3 1 1 1 3 2 0 -0 -1 -2 -2 -1 -1 -3 -4 -3 3 -1 -2 -5 -6 -6 -5 -5 -0 2 -2 -4 -6 -4 -6 -4 -4 -4 -2 -2 -5 -11 -12 -12 -11 -11 -11 -11 -9
2 1 -1 -1 1 2 2 1 -0 -2 -2 -2 -2 -3 -3 -2 -3 -1 -2 -4 -6 -6 -5 -6 -2 2 -0 2 -1 -1 -3 -6 -4 -2 -4 -5 -6 -9 -11 -11 -11 -11 -9 -9 -9
2 1 -0 0 0 1 2 2 0 -0 -2 -2 -1 -1 -1 1 -2 -1 -3 -3 -5 -3 -4 -1 1 -2 -3 -6 -5 -3 -3 -3 -2 -4 -2 -6 -6 -8 -8 -8 -8 -9 -9 -9 -10
2 1 1 1 0 1 1 2 0 -1 -0 -0 0 -2 -2 1 -1 -0 -1 -2 -2 -3 -1 -2 1 -2 -1 -3 -4 -3 -3 -3 -4 -4 -5 -5 -4 -8 -8 -9 -8 -9 -9 -9 -10
2 2 2 2 2 2 2 1 0 -1 -1 -2 -2 -1 -1 -2 -3 -3 -4 -4 -3 -1 -1 -0 -0 -0 1 -5 -5 -2 -5 -5 -4 -5 -3 -2 -4 -8 -8 -8 -8 -8 -9 -10 -10

GFSSW_850_dewp_186.txt.gz
Dewpoint
-6 -6 -4 -3 -4 -7 -8 -7 -5 -5 -3 -2 -1 1 3 6 7 7 9 9 8 6 6 7 5 4 6 6 5 5 7 7 5 3 3 1 1 1 0 -1 -1 -3 -4 -5 -4
-7 -7 -6 -5 -3 -5 -8 -8 -4 -3 -2 -3 -0 4 5 7 8 7 7 6 6 5 5 6 4 4 5 5 5 5 6 4 2 2 3 2 1 1 0 -0 -2 -4 -5 -4 -3
-5 -7 -7 -6 -6 -4 -6 -8 -5 -3 -4 -5 -1 3 5 7 8 7 7 4 4 4 5 4 4 4 4 4 5 4 6 3 2 2 1 1 1 -1 -0 1 -1 -4 -6 -5 -4
-1 -5 -7 -8 -6 -6 -5 -6 -5 -3 -3 -5 2 6 5 6 7 6 5 3 3 3 4 4 3 4 4 5 4 5 3 2 2 2 1 1 0 -1 -1 -3 -5 -4 -6 -5 -5
0 -1 -5 -6 -8 -7 -5 -6 -4 -1 -1 -3 3 5 5 7 5 5 3 3 2 1 3 3 3 3 4 3 3 4 3 1 1 2 1 -0 -1 -1 -2 -2 -7 -7 -9 -7 -6
-2 -2 -3 -6 -7 -8 -7 -6 -6 1 2 -0 2 5 7 5 4 3 3 2 0 -0 -0 2 2 2 1 1 2 1 1 1 -0 0 -0 -2 -2 -3 -4 -4 -7 -6 -10 -11 -7
0 -0 -3 -5 -6 -7 -8 -6 -7 -0 4 3 4 6 7 5 3 1 -4 -3 -1 -2 -2 0 0 1 -0 -0 -0 -2 -1 -0 -1 -2 -3 -6 -4 -5 -6 -6 -5 -6 -11 -9 -7
5 1 -1 -3 -6 -6 -8 -7 -7 -1 4 5 5 6 5 2 2 2 -3 -3 -3 -3 -3 -1 -1 -2 -3 -2 -3 -3 -4 -2 -5 -4 -7 -7 -1 -7 -7 -8 -6 -5 -11 -8 -6
5 5 1 -2 -5 -6 -7 -7 -6 -1 3 4 3 4 3 2 1 -1 -2 -4 -3 -3 -3 -3 -3 -4 -4 -4 -3 -4 -1 -4 -2 -6 -7 -7 -3 -10 -9 -8 -8 -6 -10 -11 -10
6 5 4 2 -4 -5 -6 -6 -3 -1 3 4 4 2 2 0 -1 -2 -2 -3 -3 -3 -3 -3 -3 -3 -4 -3 3 -2 -4 -6 -5 -5 -6 -6 -6 -8 -11 -9 -9 -8 -10 -12 -13
6 5 5 4 2 -3 -5 -5 3 3 3 2 1 0 0 -2 -2 -3 -3 -4 -4 -4 -3 -3 -3 -1 -1 -3 -5 -6 -6 -5 -8 -9 -8 -7 -8 -9 -11 -11 -11 -11 -11 -11 -13
6 5 5 5 4 1 -3 -5 0 0 -1 -0 -2 0 -2 -3 -5 -5 -4 -4 -4 -3 -4 -4 -4 -6 -5 -6 -7 -7 -6 -6 -8 -9 -9 -8 -8 -9 -10 -11 -12 -12 -12 -13 -14
6 6 5 5 5 2 -0 -2 -1 -2 -1 -6 -3 -1 -2 -3 -5 -6 -5 -4 -4 -3 -5 -5 -5 -7 -5 -5 -5 -6 -6 -6 -7 -8 -9 -8 -6 -7 -10 -12 -10 -11 -13 -13 -13
4 6 6 5 5 3 -1 -2 -4 -4 4 -2 -3 -3 -3 -4 -4 -6 -7 -6 -6 -6 -7 -7 -7 -7 -7 -6 -7 -5 -9 -9 -8 -6 -2 -9 -1 -7 -10 -10 -9 -9 -11 -8 -7
3 5 6 5 5 3 1 -4 -5 -1 7 -2 -4 -5 -5 -6 -5 -5 -6 -7 -6 -7 -8 -5 -6 -6 -6 -7 -8 -5 -8 -8 -7 -6 -7 -7 -5 -7 -10 -7 -8 -9 -8 -8 -9
4 4 5 5 5 4 3 -1 -2 5 5 -3 -5 -5 -5 -6 -5 -5 -6 -6 -7 -7 -8 -7 -9 -9 -8 -9 -9 -8 -8 -7 -8 -7 -1 -3 -7 -6 -9 -9 -8 -8 -8 -9 -10
4 4 5 5 4 4 3 -1 5 6 -4 -3 -3 -5 -5 -5 -4 -5 -5 -5 -4 -2 -2 -5 -7 -8 -9 -6 -8 -8 -6 3 4 3 4 -8 -8 -8 -12 -13 -9 -8 -8 -9 -11
1 4 5 5 5 3 2 3 5 -1 -2 -5 -5 -4 -4 -6 -4 -4 -3 -2 -5 -4 0 0 -1 -6 -8 -7 -5 -6 -4 4 5 4 -1 -10 -6 -8 -12 -14 -10 -9 -9 -10 -12
0 3 4 4 4 4 2 4 3 -1 -5 -4 -4 -2 -3 -4 -3 -3 -3 -2 -2 -4 1 3 -4 -9 -9 -9 -9 -7 -4 -6 -2 -5 -3 -3 -8 -11 -12 -13 -13 -10 -10 -12 -12
1 3 3 3 4 3 3 2 2 -3 -5 -4 -1 -3 -1 -3 -0 -1 -2 -4 -3 -4 -2 -0 -1 -7 -9 -9 -10 -8 -9 -1 1 1 4 -2 -5 -6 -10 -11 -12 -11 -10 -12 -12
1 2 2 3 4 2 3 3 0 -3 -5 -3 -3 -2 -2 -1 -0 1 2 -4 -5 -4 -2 -3 -0 -5 -7 -6 -5 -6 -6 -3 0 1 2 2 -4 -11 -10 -11 -12 -13 -13 -13 -12
1 2 1 3 1 0 3 1 -1 -2 -3 -2 -2 0 -3 -1 -0 1 2 -1 -6 -5 -2 -1 3 -2 -4 -7 -8 -6 -2 -1 2 1 -1 -0 -2 -11 -11 -12 -12 -13 -13 -13 -13
1 1 2 2 3 2 1 1 -1 -1 -1 -1 0 -1 -3 -0 2 1 0 -3 -6 -5 -3 -2 2 1 -2 -3 -6 -5 -4 -0 -3 -2 -1 0 -1 -11 -12 -12 -12 -12 -12 -12 -12
0 1 -1 -0 0 2 2 2 3 1 -1 -2 -1 -2 -3 -2 -1 2 -0 -4 -5 -5 -4 -2 1 2 3 2 -1 -3 -2 -2 -3 -1 -2 -1 -4 -9 -10 -10 -11 -11 -11 -11 -10
0 1 0 1 1 2 3 3 4 2 -1 -1 1 -0 0 1 -0 0 -1 -3 -4 -3 -5 -2 -1 -1 -1 -2 -0 -0 -3 -3 -3 -3 -2 -4 -4 -6 -7 -7 -8 -10 -10 -10 -10
1 0 0 1 -0 1 1 3 3 2 1 1 2 -1 -1 2 -0 1 -0 -1 -2 -3 -2 -0 1 -1 -0 -3 -4 -3 -1 -1 -3 -4 -4 -4 -4 -7 -8 -10 -10 -10 -10 -10 -10
-1 0 1 1 2 2 2 2 4 1 2 -0 0 1 0 0 -3 -3 -3 -3 -2 -1 -1 -2 -0 0 0 -3 -4 -1 -3 -2 -2 -4 -4 -3 -5 -6 -7 -8 -9 -8 -8 -8 -9

GFSSW_850_dewp_192.txt.gz
Dewpoint
1 -3 -3 -5 -7 -7 -6 -6 -7 -9 -6 -6 -4 2 7 7 7 7 6 7 7 7 6 7 4 5 5 6 6 5 7 7 6 4 3 1 1 0 -1 -3 -3 -2 -3 -4 -2
-0 -3 -3 -3 -5 -6 -7 -7 -6 -8 -7 -5 -5 4 7 8 8 8 7 6 7 8 5 6 4 5 6 6 5 5 7 7 2 2 2 1 1 1 -1 -4 -4 -4 -3 -4 -3
-1 -1 -3 -3 -3 -6 -7 -7 -7 -7 -6 -3 -4 4 6 7 7 7 6 7 3 4 5 5 5 4 5 6 5 5 6 3 3 1 1 1 1 -0 -0 -0 -4 -5 -4 -3 -3
-0 -1 -1 -3 -3 -4 -6 -7 -7 -7 -6 -2 -3 4 6 6 6 6 6 4 3 4 5 5 4 4 4 5 5 5 4 3 2 1 1 0 -0 -1 -1 -3 -3 -3 -4 -3 -3
4 0 -1 -2 -3 -3 -5 -6 -7 -7 -5 -0 -0 3 5 7 7 5 4 2 3 4 4 4 3 4 5 4 4 5 4 2 2 1 1 0 -0 -1 -1 -2 -3 -4 -4 -2 -2
6 5 2 -1 -3 -3 -4 -5 -6 -7 -6 2 1 4 5 6 3 4 4 3 1 2 4 3 3 3 3 1 4 1 2 1 2 1 0 1 -1 -1 -1 -4 -4 -4 -4 -3 -3
6 6 5 3 0 -3 -3 -4 -5 -7 -6 3 3 5 5 3 3 3 2 3 0 0 2 2 2 1 0 -0 -0 -2 1 -4 -0 1 -1 -1 -3 -3 -2 -5 -5 -5 -4 -4 -5
4 6 6 5 3 1 -2 -3 -4 -6 -6 3 5 6 6 2 3 3 1 -3 -0 -1 -2 0 1 0 -2 -3 -3 -2 -3 -2 -5 -1 -6 -6 -4 -9 -5 -7 -6 -5 -5 -5 -8
3 5 5 6 5 4 2 -0 -4 -5 -4 4 4 4 4 3 4 3 1 -6 -3 -2 -2 -2 0 -3 -3 -3 -3 -4 -2 -3 -4 -2 -6 -7 -6 -8 -7 -5 -8 -10 -11 -7 -8
2 3 6 6 5 5 4 3 -1 -3 0 5 5 5 3 2 3 2 -3 -3 -3 -4 -4 -2 -3 -3 -4 -3 -3 -2 -2 -4 -3 -2 -6 -6 -6 -8 -8 -5 -6 -7 -10 -9 -6
2 3 4 6 6 5 4 4 0 2 3 0 1 1 0 1 1 1 -2 -3 -3 -3 -2 -3 -1 -1 -2 -4 -5 -5 -5 -6 -7 -6 -5 -5 -6 -7 -9 -9 -6 -6 -8 -9 -6
-1 2 3 4 6 4 5 4 1 -1 -0 -0 0 2 0 0 -2 -1 -2 -3 -3 -1 -3 -2 -1 -3 -4 -4 -4 -7 -6 -6 -8 -9 -6 -8 -7 -7 -7 -9 -9 -7 -6 -10 -6
0 -3 1 4 3 5 3 4 3 1 -0 -2 -4 -1 -0 -0 -2 -2 -3 -4 -3 -2 -2 -1 -3 -4 -4 -2 -3 -6 -6 -6 -6 -9 -9 -9 -7 -7 -9 -9 -10 -9 -9 -7 -8
2 -1 -3 2 2 3 5 -0 3 0 1 -3 -1 -4 -2 0 -2 -3 -3 -5 -3 -2 -3 -3 -6 -4 -5 -5 -6 -4 -8 -8 -7 -7 -5 -8 -3 -8 -10 -9 -10 -10 -10 -8 -9
-1 2 -2 -1 1 3 2 2 -3 1 4 -4 -2 -4 -2 -2 -3 -4 -5 -4 -3 -4 -5 -3 -5 -5 -5 -6 -7 -6 -8 -7 -7 -6 -7 -7 -5 -6 -10 -8 -8 -10 -11 -12 -12
-0 1 1 -3 1 2 3 -0 1 3 1 -1 -4 -3 -2 -4 -5 -5 -3 -5 -7 -7 -7 -7 -8 -8 -7 -8 -8 -8 -7 -6 -6 -6 -4 -6 -5 -6 -8 -9 -8 -10 -9 -11 -8
-1 -1 2 -0 0 2 2 2 3 3 -3 -0 -2 -2 -1 -2 -4 -5 -4 -4 -4 -3 -4 -6 -7 -8 -9 -7 -8 -8 -5 -1 -0 -2 -1 -5 -7 -6 -10 -11 -9 -9 -8 -7 -6
-1 -2 1 1 -1 2 3 3 3 -1 -0 -4 -3 -3 0 -2 -3 -4 -4 -2 -5 -4 -3 -2 -2 -7 -8 -7 -6 -7 -4 0 1 4 3 -10 -4 -7 -13 -13 -10 -9 -7 -7 -7
-1 -1 0 -0 -1 1 3 3 2 1 -0 2 -3 -1 -1 -2 -2 -3 -3 -3 -4 -4 -2 -2 -3 -8 -8 -9 -8 -6 -4 -5 -2 -4 -3 -5 -8 -10 -13 -8 -8 -8 -8 -9 -9
0 0 0 1 -2 1 2 3 1 -1 1 2 3 -1 0 -2 -1 -1 -2 -4 -4 -4 -3 -3 -3 -7 -9 -9 -10 -8 -8 -3 -4 -2 1 -1 -3 -6 -10 -8 -7 -8 -10 -11 -11
0 0 -3 -2 -0 2 3 3 0 -1 -1 2 4 4 0 -1 -1 -1 -0 -3 -5 -4 -3 -5 -4 -5 -8 -6 -6 -6 -6 -3 -3 -1 1 0 -2 -9 -11 -11 -7 -8 -9 -10 -10
0 1 -1 1 1 1 2 3 0 -0 -2 0 1 2 4 -0 -1 0 -0 -1 -4 -3 -2 -3 -4 -3 -5 -7 -8 -8 -5 -2 -1 -3 -5 -2 -3 -9 -12 -12 -10 -9 -9 -9 -9
0 -0 -0 2 2 -0 1 2 2 1 1 0 2 0 2 4 3 -1 0 -3 -3 -3 -1 -1 -3 -3 -3 -4 -6 -5 -4 -5 -6 -5 -3 -2 -4 -10 -12 -12 -13 -11 -9 -10 -10
-1 0 -0 1 -0 -1 0 1 2 1 2 2 1 0 2 3 2 2 -2 -3 -4 -2 -1 -2 -2 -3 -1 -4 -5 -6 -4 -3 -4 -2 -2 -4 -5 -9 -11 -11 -12 -13 -12 -11 -12
-1 -0 -0 0 0 1 1 1 2 3 2 2 3 2 3 4 4 2 -2 -3 -3 -1 -2 -4 -1 -2 -2 -2 -5 -6 -5 -5 -4 -4 -2 -5 -4 -8 -10 -11 -12 -13 -13 -12 -12
-1 -0 -1 0 -1 -1 -0 2 2 2 3 3 3 2 3 4 3 4 -1 -2 -2 -3 -2 -3 -1 -2 -1 -2 -3 -2 -4 -3 -3 -4 -5 -4 -4 -7 -10 -12 -11 -12 -12 -11 -10
-1 -0 -0 0 1 0 0 -1 2 0 1 -0 2 2 3 2 1 2 0 -0 -1 -2 -3 -3 -2 -3 -1 -3 -3 -1 -2 -3 -3 -4 -4 -3 -6 -8 -8 -9 -10 -10 -10 -10 -10

GFSSW_850_dewp_195.txt.gz
Dewpoint
-1 -2 -2 -3 -3 -5 -6 -8 -7 -7 -7 -3 -5 -2 4 7 7 7 5 6 7 8 8 7 5 5 5 6 6 6 7 8 7 5 4 1 1 -0 -1 -2 -3 -2 -3 -3 -2
-3 -3 -2 -3 -3 -3 -5 -6 -7 -7 -7 -4 -4 2 6 7 7 7 4 7 7 7 6 7 5 5 5 6 6 5 7 7 3 2 2 1 1 -1 -3 -4 -4 -3 -4 -3 -4
3 -2 -3 -3 -3 -3 -3 -5 -7 -7 -6 -3 -3 2 6 7 5 4 5 7 7 7 5 7 5 5 5 6 5 5 7 4 2 1 1 1 0 0 -3 -2 -4 -4 -4 -4 -5
5 5 3 -2 -4 -3 -2 -4 -6 -7 -7 -3 -2 2 6 6 2 6 6 7 4 4 5 6 4 4 5 6 5 5 4 3 2 2 1 1 -0 -1 -1 -1 -1 -3 -3 -4 -5
6 5 5 4 1 -3 -2 -3 -5 -6 -7 -3 -0 1 6 6 3 3 5 4 4 4 5 5 4 4 5 5 5 5 4 3 3 1 1 0 -0 -0 -1 -4 -4 -4 -3 -4 -4
5 5 5 5 5 1 -3 -3 -4 -5 -6 -4 2 4 5 5 1 4 5 2 2 4 4 4 4 4 4 3 4 4 4 2 2 1 1 1 0 -1 -1 -1 -4 -4 -3 -4 -3
3 3 4 5 5 5 2 -1 -3 -4 -6 -4 3 5 5 0 1 3 3 4 3 0 2 3 3 2 2 1 0 -1 1 -3 1 1 0 -1 -1 -1 -1 -1 -4 -4 -3 -4 -4
2 2 3 4 5 5 5 2 0 -2 -5 -3 5 6 5 -0 2 3 2 1 2 0 -0 1 2 1 -1 -1 -3 -1 -2 3 -2 1 -3 -4 -1 -8 -5 -4 -5 -4 -4 -2 -2
3 2 2 3 6 5 5 4 4 2 -4 -1 6 5 4 1 2 3 3 -0 -2 -0 -2 -0 0 -2 -3 -3 -3 -3 0 -0 -5 -1 -6 -4 -4 -10 -7 -6 -5 -4 -4 -3 -3
0 1 2 3 4 6 6 5 4 2 -0 4 5 5 2 1 2 3 3 -3 -3 -2 -3 -2 -2 -3 -3 -2 2 -2 -2 -3 -4 -1 -6 -6 -5 -8 -7 -6 -6 -5 -5 -5 -6
3 0 -2 2 3 4 5 5 4 2 4 2 4 1 -1 0 1 3 3 -3 -3 -3 -3 -3 -1 2 0 -3 -6 -5 -4 -4 -5 -4 -5 -4 -5 -7 -8 -5 -6 -7 -8 -7 -7
3 3 -0 -3 1 3 4 4 3 1 0 1 1 3 0 1 -0 1 0 -3 -3 -1 -3 -2 0 -2 -4 -4 -5 -6 -5 -6 -8 -8 -3 -4 -5 -6 -7 -8 -6 -6 -8 -10 -8
-1 1 2 0 -4 1 4 4 3 4 1 -1 -1 0 1 1 -1 -1 -1 -3 -3 -1 -2 -2 -5 -5 -4 -3 -3 -5 -5 -6 -6 -9 -8 -8 -6 -8 -9 -8 -8 -6 -6 -8 -9
-1 -3 -2 3 -0 -2 0 1 3 3 2 -2 -2 -2 -1 1 -1 -1 -1 -3 -3 -1 -2 -2 -5 -3 -3 -2 -4 -4 -7 -7 -7 -7 -4 -8 -3 -8 -9 -10 -9 -9 -7 -6 -9
-1 1 -0 0 1 0 2 1 1 2 3 -5 -3 -4 -2 -0 -2 -2 -2 -4 -2 -2 -3 -1 -4 -4 -4 -4 -6 -4 -7 -7 -7 -6 -7 -7 -5 -7 -10 -8 -9 -10 -9 -8 -6
-3 -1 1 1 2 -2 0 3 2 3 1 -3 -2 -1 -1 -2 -5 -3 -3 -5 -5 -5 -7 -4 -8 -7 -6 -7 -8 -8 -6 -5 -6 -6 -3 -6 -5 -6 -8 -9 -9 -10 -10 -10 -9
-3 -2 -1 1 1 1 -1 3 3 2 -4 -2 -2 -1 -0 -2 -4 -4 -2 -4 -4 -3 -4 -7 -7 -8 -8 -7 -9 -8 -6 -2 -2 -2 -1 -5 -6 -7 -9 -11 -10 -10 -10 -11 -10
-3 -2 -1 0 -0 1 1 2 3 -0 -1 -3 -3 -1 1 -1 -3 -4 -1 -1 -4 -5 -3 -2 -2 -7 -8 -7 -6 -6 -5 -1 -1 1 1 -7 -3 -5 -12 -13 -12 -10 -10 -10 -9
-0 -0 0 -1 -1 1 1 2 1 0 -3 -1 -3 0 1 -1 1 -3 -2 -1 -3 -4 -3 -2 -3 -8 -8 -8 -8 -6 -3 -5 -2 -4 -3 -4 -7 -10 -12 -8 -8 -8 -8 -8 -7
-1 -1 -1 -2 -1 1 1 2 1 -2 1 -0 -1 -2 2 2 2 3 -1 -3 -3 -4 -4 -4 -3 -7 -9 -9 -10 -7 -7 -3 -3 -3 -1 -3 -3 -6 -10 -8 -7 -7 -8 -7 -7
-1 -1 -1 -1 0 0 1 1 2 -1 1 2 2 3 2 2 2 3 2 -2 -5 -4 -4 -5 -4 -5 -8 -6 -6 -6 -5 -3 -3 -2 -1 -0 -2 -7 -10 -10 -7 -8 -8 -7 -7
-1 -1 -1 -1 1 0 -0 3 1 -0 -1 1 2 3 3 3 3 3 3 -1 -5 -5 -3 -5 -4 -4 -5 -7 -8 -8 -4 -4 -2 -4 -5 -2 -4 -9 -11 -12 -8 -8 -9 -8 -8
-1 -1 -2 1 0 1 0 -1 1 2 -0 0 2 2 1 3 4 3 1 -2 -3 -3 -3 -4 -2 -3 -3 -5 -6 -6 -6 -5 -6 -5 -3 -2 -5 -10 -12 -12 -9 -8 -9 -9 -10
-1 -1 -0 0 -1 -2 -1 -0 2 2 2 2 0 1 2 4 3 4 2 -1 -3 -3 -3 -4 -3 -2 -1 -4 -5 -5 -4 -4 -4 -3 -3 -4 -6 -9 -11 -12 -12 -9 -8 -9 -9
-1 -2 -1 0 -1 0 -2 -3 -1 1 2 2 3 1 3 3 4 4 2 -1 -2 0 -3 -2 -1 -3 -1 -4 -6 -6 -6 -4 -4 -4 -3 -5 -6 -8 -10 -11 -12 -11 -9 -9 -9
-1 -2 -1 0 -1 0 1 -0 1 1 2 2 3 2 2 2 3 4 2 1 -1 -3 -1 -2 0 -1 -1 -3 -3 -3 -4 -4 -5 -5 -4 -5 -5 -7 -11 -12 -12 -13 -13 -12 -12
-1 -1 -1 -1 0 -1 -1 -1 1 2 1 0 1 2 3 2 2 2 2 2 1 -0 0 -0 -0 -0 1 -2 -3 -1 -3 -3 -4 -5 -5 -4 -6 -7 -10 -11 -11 -12 -13 -12 -12